Other Surface Observations
Issued by NWS Tucson, AZ

Home | Current Version | Previous Version | Text Only | Print | Product List | Glossary On
Versions: 1 2 3 4 5 6 7 8 9 10 11 12 13 14 15 16 17 18 19 20 21 22 23 24 25 26 27 28 29 30 31 32 33 34 35 36 37 38 39 40 41 42 43 44 45 46 47 48 49 50
000
SXUS55 KTWC 302016
OSOTWC

WEATHER ROUNDUP FOR SOUTHEAST ARIZONA
NATIONAL WEATHER SERVICE TUCSON AZ
115 PM MST TUE SEP 30 2014

AZZ504>506-514-302115-
LOCATION       SKY/WX    TMP DP  RH WIND       PRES   REMARKS
TUCSON         SUNNY     85  32  15 CALM      29.90F
DAVIS-MONTHAN  SUNNY     82  32  16 VRB2      29.88F
CHILDRENS PARK N/A       82  36  19 NW0               PIMA CO DEQ
ALVERNON/22ND  N/A      N/A N/A N/A N/A               PIMA CO DEQ
CHERRY/GLENN   N/A      N/A N/A N/A N/A               PIMA CO DEQ
TANGERINE      N/A       82 N/A N/A S2                PIMA CO DEQ
CONTL RANCH    N/A       84  39  20 NW2               PIMA CO DEQ
GRANT/1ST      N/A       82  36  19 SW1               PIMA CO DEQ
CRAYCROFT/22ND N/A      N/A N/A N/A N/A               PIMA CO DEQ
GOLFLINKS/KOLB N/A       82  37  20 NW2               PIMA CO DEQ
AJO/12TH       N/A       83  34  17 S3                PIMA CO DEQ
SAGUARO EAST   N/A      N/A N/A N/A N/A               PIMA CO DEQ
FAIRGROUNDS    N/A       81 N/A N/A W4                PIMA CO DEQ
SAGUARO        N/A       86  38  18 W5G10             *SABINO CYN
SAN CARLOS     N/A       81  33  18 S3                *SAN CARLOS
GREEN VALLEY   N/A       83  35  18 E1                PIMA CO DEQ
HORSE CAMP CYN N/A       79  29  16 SW9G16            *ARAVAIPA CYN
RINCON MTNS    N/A       65  28  25 SW3G10            *NR MANNING CAMP
$$

AZZ509>511-302115-
LOCATION       SKY/WX    TMP DP  RH WIND       PRES   REMARKS
SAFFORD        SUNNY     82  33  17 VRB5      29.89F
STRAY HORSE    N/A       61  28  28 W13G18            *
TRAIL CABIN    N/A       70  34  26 SW5G11            *N OF GRANVILLE
BLACK HILLS    N/A       82  31  16 W5G12             *N OF FT THOMAS
DRY LAKE       N/A       66  34  30 W5G11             *NATANES MTNS
NOON CREEK     N/A       75  36  24 NE6G11            *PINALENO MTNS
COLUMBINE      N/A       55  30  38 S8G14             *PINALENO MTNS
GUTHRIE        N/A       68  27  21 SW4G11            *SW OF GUTHRIE
$$

AZZ502-503-513-302115-
LOCATION       SKY/WX    TMP DP  RH WIND       PRES   REMARKS
NOGALES        SUNNY     82  33  17 CALM      29.95F
SELLS          N/A       85  39  20 W4                *
SASABE         N/A       83  35  18 S4                *ALTAR VLY
HOPKINS        N/A       68  35  29 W6                *SANTA RITA MTNS
CARR CYN       N/A       79  47  32 NE2               *W OF HEREFORD
$$

AZZ507-508-512-302115-
LOCATION       SKY/WX    TMP DP  RH WIND       PRES   REMARKS
SIERRA VISTA   MOSUNNY   81  34  18 SW8G21    29.98F
DOUGLAS        SUNNY     81  50  33 VRB5      29.94F
EMPIRE MTNS    N/A       78  37  23 NW9G16            *LAS CIENEGAS NCA
MULESHOE RANCH N/A       77  29  17 NW7G13            *PRESERVE
HEADQUARTERS   N/A       76  41  28 SW4G15            *CHIRICAHUA MTNS
$$

.............................NOTES.............................
THIS IS AN AUTOMATED COLLECTIVE WITH MINIMAL QUALITY CONTROL.
PIMA CO DEQ SITES HAVE NONSTANDARD WIND SENSOR HEIGHTS.
PIMA CO DEQ SITES DO NOT REPORT WIND GUSTS.
* INDICATES WIND SENSORS LOCATED AT 20 FEET INSTEAD OF 33 FEET.
..............................KEY..............................
SKY/WX - SKY CONDITION/WEATHER
TMP    - TEMPERATURE IN FAHRENHEIT
DP     - DEWPOINT IN FAHRENHEIT
RH     - RELATIVE HUMIDITY IN PERCENT
WIND   - DIRECTION AND SPEED IN MILES PER HOUR (MPH)
VRB    - VARIABLE WIND DIRECTION
PRES   - MEAN SEA LEVEL PRESSURE IN INCHES OF MERCURY
         F - FALLING PRESSURE   R - RISING PRESSURE
         S - STEADY PRESSURE
VSB    - VISIBILITY IN MILES
HX     - HEAT INDEX IN FAHRENHEIT
WCI    - WIND CHILL INDEX IN FAHRENHEIT
N/A    - NOT AVAILABLE
AFB    - AIR FORCE BASE
         DAVIS-MONTHAN IS DAVIS-MONTHAN AIR FORCE BASE
CYN    - CANYON
MTNS   - MOUNTAINS
NCA    - NATIONAL CONSERVATION AREA
NR     - NEAR
VLY    - VALLEY
CONTL  - CONTINENTAL
PIMA CO DEQ - PIMA COUNTY DEPT OF ENVIRONMENTAL QUALITY



USA.gov is the U.S. government's official web portal to all federal, state and local government web resources and services.